Weather History for Greenville, AL

Change the Weather History Date:

Saturday, August 9, 2014

  Actual Average Record
Temperature  
Mean Temperature 82 °F -  
Max Temperature 93 °F 91 °F 103 °F (1954)
Min Temperature 73 °F 69 °F 62 °F (1989)
Cooling Degree Days 17    
Growing Degree Days 32 (Base 50)    
Moisture  
Dew Point 73 °F    
Average Humidity 85    
Maximum Humidity 97    
Minimum Humidity 55    
Precipitation  
Precipitation 1.30 in - - ()
Sea Level Pressure  
Sea Level Pressure 30.00 in    
Wind  
Wind Speed 2 mph (SW)    
Max Wind Speed 17 mph    
Max Gust Speed 30 mph    
Visibility 5 miles    
Events Fog , Rain , Thunderstorm    
Averages and records for this station are not official NWS values.
T = Trace of Precipitation, MM = Missing Value Source: NWS Daily Summary

Daily Weather History Graph

Daily Weather History Graph

Search for Another Location

Airport:

Trip Planner

Search our weather history database for the weather conditions in past years. The results will help you decide how hot, cold, wet, or windy it might be!

Date:

Astronomy

Aug. 09, 2014 Rise Set
Actual Time 6:07 AM CDT 7:36 PM CDT
Civil Twilight 5:41 AM CDT 8:02 PM CDT
Nautical Twilight 5:10 AM CDT 8:33 PM CDT
Astronomical Twilight 4:37 AM CDT 9:05 PM CDT
Moon 6:38 PM CDT (8/9) 4:47 AM CDT (8/9)
Length of Visible Light 14h 20m
Length of Day
13h 28m
Waxing Gibbous, 98% of the Moon is Illuminated
Aug 9
Waxing Gibbous
Aug 10
Full
Aug 17
Last Quarter
Aug 25
New
Sep 2
First Quarter

Hourly Weather History & Observations

Time (CDT) Temp. Heat Index Dew Point Humidity Pressure Visibility Wind Dir Wind Speed Gust Speed Precip Events Conditions
1:56 AM 73.9 °F - 72.0 °F 93% 29.99 in 3.0 mi Calm Calm - N/A   Mostly Cloudy
2:10 AM 73.4 °F - 71.6 °F 94% 30.00 in 2.5 mi Calm Calm - N/A   Scattered Clouds
2:35 AM 73.4 °F - 71.6 °F 94% 30.01 in 3.0 mi Calm Calm - N/A   Partly Cloudy
2:52 AM 73.4 °F - 71.6 °F 94% 30.00 in 2.5 mi Calm Calm - N/A   Mostly Cloudy
2:56 AM 75.0 °F - 73.0 °F 94% 29.99 in 3.0 mi Calm Calm - N/A   Mostly Cloudy
3:07 AM 73.4 °F - 71.6 °F 94% 30.00 in 2.0 mi Calm Calm - N/A   Mostly Cloudy
3:18 AM 75.2 °F - 73.4 °F 94% 30.00 in 4.0 mi Calm Calm - N/A   Mostly Cloudy
3:56 AM 73.9 °F - 72.0 °F 93% 29.99 in 3.0 mi Calm Calm - N/A   Partly Cloudy
4:07 AM 73.4 °F - 71.6 °F 94% 30.00 in 2.5 mi Calm Calm - N/A   Mostly Cloudy
4:15 AM 73.4 °F - 71.6 °F 94% 30.00 in 3.0 mi Calm Calm - N/A   Mostly Cloudy
4:43 AM 73.4 °F - 71.6 °F 94% 30.00 in 2.5 mi Calm Calm - N/A   Scattered Clouds
4:56 AM 75.0 °F - 73.0 °F 94% 29.99 in 3.0 mi Calm Calm - N/A   Partly Cloudy
5:35 AM 73.4 °F - 71.6 °F 94% 30.01 in 3.0 mi Calm Calm - N/A   Mostly Cloudy
5:45 AM 73.4 °F - 71.6 °F 94% 30.01 in 3.0 mi Calm Calm - N/A   Partly Cloudy
5:56 AM 73.9 °F - 72.0 °F 93% 29.99 in 5.0 mi Calm Calm - N/A   Partly Cloudy
6:15 AM 73.4 °F - 71.6 °F 94% 30.02 in 2.0 mi SSE 3.5 mph - N/A   Clear
6:25 AM 73.4 °F - 71.6 °F 94% 30.02 in 1.5 mi South 3.5 mph - N/A   Clear
6:51 AM 75.2 °F - 73.4 °F 94% 30.02 in 2.0 mi Calm Calm - N/A   Clear
6:56 AM 75.0 °F - 73.0 °F 94% 30.01 in 2.0 mi Calm Calm - N/A   Clear
7:12 AM 75.2 °F - 73.4 °F 94% 30.03 in 2.5 mi Calm Calm - N/A   Partly Cloudy
7:21 AM 75.2 °F - 73.4 °F 94% 30.03 in 3.0 mi Calm Calm - N/A   Clear
7:56 AM 77.0 °F - 73.0 °F 88% 30.02 in 9.0 mi Calm Calm - N/A   Scattered Clouds
8:56 AM 82.0 °F 86.7 °F 72.0 °F 71% 30.02 in 10.0 mi SSW 4.6 mph - N/A   Clear
9:56 AM 84.9 °F 91.4 °F 73.0 °F 67% 30.03 in 10.0 mi WSW 8.1 mph - N/A   Clear
10:56 AM 88.0 °F 95.6 °F 73.0 °F 61% 30.03 in 10.0 mi Variable 3.5 mph - N/A   Clear
11:56 AM 91.0 °F 100.4 °F 73.9 °F 57% 30.01 in 10.0 mi Variable 3.5 mph - N/A   Partly Cloudy
12:56 PM 91.0 °F 99.3 °F 73.0 °F 55% 29.99 in 10.0 mi WSW 4.6 mph - N/A   Mostly Cloudy
1:56 PM 89.1 °F 96.0 °F 72.0 °F 57% 29.97 in 10.0 mi NNW 3.5 mph - 0.04 in   Mostly Cloudy
2:15 PM 91.4 °F 100.1 °F 73.4 °F 55% 29.97 in 10.0 mi NE 3.5 mph - N/A Thunderstorm Thunderstorm
2:31 PM 89.6 °F 99.8 °F 75.2 °F 62% 29.96 in 10.0 mi ESE 8.1 mph - N/A   Clear
2:56 PM 90.0 °F 99.0 °F 73.9 °F 59% 29.94 in 10.0 mi ENE 3.5 mph - N/A   Partly Cloudy
3:42 PM 87.8 °F 95.6 °F 73.4 °F 62% 29.95 in 10.0 mi SSE 5.8 mph - 0.00 in Thunderstorm Thunderstorm
3:56 PM 91.0 °F 104.2 °F 77.0 °F 63% 29.93 in 10.0 mi SSE 5.8 mph - 0.00 in   Partly Cloudy
4:21 PM 89.6 °F 96.2 °F 71.6 °F 55% 29.95 in 10.0 mi Variable 3.5 mph - N/A Thunderstorm Partly Cloudy
4:56 PM 82.0 °F 86.7 °F 72.0 °F 71% 29.93 in 10.0 mi North 10.4 mph - N/A Thunderstorm Thunderstorm
5:29 PM 75.2 °F - 71.6 °F 89% 29.99 in 1.5 mi WNW 17.3 mph 29.9 mph 0.09 in Rain , Thunderstorm Heavy Thunderstorms and Rain
5:35 PM 75.2 °F - 71.6 °F 89% 30.01 in 0.2 mi WNW 16.1 mph 27.6 mph 0.53 in Fog , Rain , Thunderstorm Heavy Thunderstorms and Rain
5:53 PM 75.2 °F - 71.6 °F 89% 30.03 in 0.8 mi WNW 8.1 mph - 1.05 in Rain , Thunderstorm Heavy Thunderstorms and Rain
5:56 PM 75.0 °F - 72.0 °F 90% 30.01 in 1.0 mi WSW 8.1 mph - 1.07 in Rain , Thunderstorm Heavy Thunderstorms and Rain
6:07 PM 75.2 °F - 71.6 °F 89% 30.03 in 1.5 mi West 5.8 mph - 0.04 in Rain , Thunderstorm Heavy Thunderstorms and Rain
6:20 PM 75.2 °F - 73.4 °F 94% 30.04 in 2.5 mi Calm Calm - 0.06 in Rain , Thunderstorm Light Thunderstorms and Rain
6:30 PM 75.2 °F - 73.4 °F 94% 30.03 in 3.0 mi Calm Calm - 0.07 in Rain , Thunderstorm Thunderstorms and Rain
7:09 PM 75.2 °F - 73.4 °F 94% 30.03 in 4.0 mi ESE 4.6 mph - 0.01 in Rain Light Rain
7:18 PM 75.2 °F - 73.4 °F 94% 30.03 in 4.0 mi ESE 4.6 mph - 0.02 in Rain , Thunderstorm Thunderstorms and Rain
7:56 PM 75.0 °F - 73.0 °F 94% 30.01 in 4.0 mi Calm Calm - 0.10 in Rain , Thunderstorm Thunderstorms and Rain
8:07 PM 75.2 °F - 73.4 °F 94% 30.03 in 4.0 mi Calm Calm - 0.01 in Rain Rain
8:56 PM 73.9 °F - 73.0 °F 97% 30.01 in 4.0 mi Calm Calm - 0.08 in Rain Light Rain
9:56 PM 75.0 °F - 73.0 °F 94% 30.01 in 5.0 mi South 5.8 mph - 0.01 in Rain Light Rain
10:07 PM 75.2 °F - 73.4 °F 94% 30.03 in 5.0 mi Calm Calm - 0.00 in   Mostly Cloudy
10:56 PM 73.9 °F - 73.0 °F 97% 30.01 in 6.0 mi WNW 3.5 mph - 0.00 in   Mostly Cloudy
11:56 PM 73.9 °F - 72.0 °F 93% 30.00 in 4.0 mi Calm Calm - N/A   Overcast